Weather History for Detroit Metro, MI

Change the Weather History Date:

Sunday, July 14, 2013

  Actual Average Record
Temperature  
Mean Temperature 79 °F 74 °F  
Max Temperature 89 °F 84 °F 104 °F (1936)
Min Temperature 69 °F 64 °F 46 °F (1967)
Degree Days  
Heating Degree Days 0 0  
Month to date heating degree days 0 0  
Since 1 June heating degree days 23 35  
Since 1 July heating degree days 0 0  
Cooling Degree Days 14 9  
Month to date cooling degree days 133 123  
Year to date cooling degree days 406 338  
Since 1 June cooling degree days 303 290  
Growing Degree Days 29 (Base 50)    
Moisture  
Dew Point 67 °F    
Average Humidity 69    
Maximum Humidity 84    
Minimum Humidity 53    
Precipitation  
Precipitation 0.00 in 0.10 in 1.26 in (1886)
Month to date precipitation 2.52 1.43  
Year to date precipitation 23.38 17.49  
Snow  
Snow 0.00 in 0.00 in 0.00 in ()
Month to date snowfall 0.0 0.0  
Since 1 June snowfall 0.0 0.0  
Since 1 July snowfall 0.0 0.0  
Snow Depth 0.00 in    
Sea Level Pressure  
Sea Level Pressure 30.24 in    
Wind  
Wind Speed 4 mph (East)    
Max Wind Speed 13 mph    
Max Gust Speed 18 mph    
Visibility 10 miles    
Events      
T = Trace of Precipitation, MM = Missing Value Source: NWS Daily Summary

Daily Weather History Graph

Daily Weather History Graph

Search for Another Location

Airport:

Trip Planner

Search our weather history database for the weather conditions in past years. The results will help you decide how hot, cold, wet, or windy it might be!

Date:

Astronomy

Jul. 14, 2013 Rise Set
Actual Time 6:09 AM EDT 9:08 PM EDT
Civil Twilight 5:36 AM EDT 9:41 PM EDT
Nautical Twilight 4:53 AM EDT 10:24 PM EDT
Astronomical Twilight 4:03 AM EDT 11:14 PM EDT
Moon 12:33 PM EDT (7/14) No Moon Set
Length of Visible Light 16h 05m
Length of Day
14h 58m
Waxing Crescent, 35% of the Moon is Illuminated
Jul 14
Waxing Crescent
Jul 15
First Quarter
Jul 22
Full
Jul 29
Last Quarter
Aug 6
New

Hourly Weather History & Observations

Time (EDT) Temp. Heat Index Dew Point Humidity Pressure Visibility Wind Dir Wind Speed Gust Speed Precip Events Conditions
12:53 AM 73.0 °F - 62.1 °F 68% 30.23 in 10.0 mi Calm Calm - N/A   Clear
1:53 AM 72.0 °F - 63.0 °F 73% 30.22 in 10.0 mi Calm Calm - N/A   Clear
2:53 AM 70.0 °F - 63.0 °F 78% 30.22 in 10.0 mi NNE 4.6 mph - N/A   Clear
3:53 AM 72.0 °F - 64.0 °F 76% 30.22 in 10.0 mi ENE 3.5 mph - N/A   Clear
4:53 AM 72.0 °F - 64.0 °F 76% 30.23 in 10.0 mi Calm Calm - N/A   Clear
5:53 AM 70.0 °F - 64.9 °F 84% 30.24 in 10.0 mi North 3.5 mph - N/A   Clear
6:53 AM 70.0 °F - 64.9 °F 84% 30.25 in 10.0 mi North 4.6 mph - N/A   Clear
7:53 AM 73.9 °F - 66.9 °F 79% 30.26 in 10.0 mi NE 4.6 mph - N/A   Clear
8:53 AM 78.1 °F - 68.0 °F 71% 30.26 in 10.0 mi ENE 4.6 mph - N/A   Clear
9:53 AM 80.1 °F 82.9 °F 69.1 °F 69% 30.26 in 10.0 mi East 4.6 mph - N/A   Clear
10:53 AM 82.9 °F 85.8 °F 68.0 °F 60% 30.26 in 10.0 mi East 8.1 mph - N/A   Partly Cloudy
11:53 AM 84.0 °F 86.5 °F 66.9 °F 56% 30.26 in 10.0 mi Calm Calm - N/A   Partly Cloudy
12:53 PM 86.0 °F 89.4 °F 68.0 °F 55% 30.26 in 10.0 mi SE 3.5 mph - N/A   Scattered Clouds
1:53 PM 86.0 °F 89.4 °F 68.0 °F 55% 30.25 in 10.0 mi NE 6.9 mph - N/A   Scattered Clouds
2:53 PM 86.0 °F 90.1 °F 69.1 °F 57% 30.25 in 10.0 mi SE 5.8 mph - N/A   Mostly Cloudy
3:53 PM 88.0 °F 92.1 °F 69.1 °F 53% 30.24 in 10.0 mi Variable 4.6 mph - N/A   Mostly Cloudy
4:53 PM 88.0 °F 91.4 °F 68.0 °F 51% 30.23 in 10.0 mi SE 6.9 mph - N/A   Mostly Cloudy
5:53 PM 86.0 °F 90.7 °F 70.0 °F 59% 30.24 in 10.0 mi SSE 9.2 mph - N/A   Mostly Cloudy
6:53 PM 84.0 °F 87.0 °F 68.0 °F 58% 30.23 in 10.0 mi SE 5.8 mph - N/A   Mostly Cloudy
7:53 PM 84.0 °F 86.5 °F 66.9 °F 56% 30.23 in 10.0 mi SSE 9.2 mph - N/A   Scattered Clouds
8:53 PM 82.0 °F 84.9 °F 68.0 °F 62% 30.23 in 10.0 mi SSE 4.6 mph - N/A   Scattered Clouds
9:53 PM 79.0 °F - 69.1 °F 72% 30.25 in 10.0 mi SSE 4.6 mph - N/A   Scattered Clouds
10:53 PM 77.0 °F - 69.1 °F 76% 30.26 in 10.0 mi SE 3.5 mph - N/A   Partly Cloudy
11:53 PM 77.0 °F - 68.0 °F 74% 30.26 in 10.0 mi Calm Calm - N/A   Partly Cloudy